Wind_Speed
22 22 21 21 23 20 18 18 18 17 15 14 13 12 11 10 9 7 7 6 5 4 5 5 5 5 6 6 7 8 8 9 11 11 11 11 11 10 9 9 8 8 7 7 6 6 6 6 6
22 22 22 23 22 19 19 18 18 18 17 15 15 13 12 10 9 8 7 6 5 5 4 4 5 4 5 6 7 7 7 8 9 10 10 10 10 9 8 8 8 7 7 6 6 6 6 6 5
22 21 22 23 20 20 19 19 18 18 17 17 16 15 13 12 10 9 8 7 6 5 4 4 4 4 5 5 6 7 7 8 9 9 9 9 9 9 8 8 7 6 6 6 6 5 5 5 5
21 22 24 22 20 20 20 19 19 19 18 18 17 16 15 14 12 10 9 8 6 6 5 4 4 4 4 5 6 7 8 9 8 8 8 9 9 8 7 7 6 6 5 5 5 5 5 5 5
19 23 22 20 20 20 20 20 20 20 19 18 18 17 16 15 13 11 10 8 7 6 5 5 4 4 4 4 5 7 8 8 8 8 8 8 8 8 7 7 7 6 6 5 5 5 5 4 4
20 21 19 19 20 20 21 21 20 20 19 19 19 17 16 15 14 12 10 9 7 6 6 5 4 4 4 4 6 7 8 7 7 7 7 6 6 6 7 7 6 6 5 4 5 5 5 4 4
20 19 18 18 19 20 21 21 21 21 20 20 19 18 17 16 15 13 11 10 9 8 6 5 5 4 4 5 6 6 7 7 7 6 7 6 6 6 6 6 6 6 5 4 4 4 4 4 4
18 18 17 18 19 20 20 21 21 21 21 20 20 19 18 17 16 14 13 11 10 8 7 6 5 4 4 4 5 5 6 6 6 6 6 6 6 6 7 6 6 5 5 4 4 4 4 4 4
16 17 16 17 18 19 21 21 22 22 21 21 20 20 19 18 16 15 14 12 11 10 8 7 5 4 3 4 4 4 5 5 5 5 6 5 6 7 7 6 6 5 5 4 4 3 4 4 4
15 14 15 17 18 19 20 21 21 22 22 21 21 20 20 19 18 16 15 13 12 11 10 8 7 6 4 4 3 4 4 5 5 5 5 5 6 6 6 6 5 5 4 4 4 3 4 4 4
13 13 14 15 16 18 19 20 20 21 21 21 20 20 20 19 18 17 16 14 13 11 10 9 7 7 6 5 4 4 4 4 4 4 4 4 4 5 6 6 5 4 3 4 4 3 4 4 4
10 11 12 13 14 16 17 18 19 20 20 20 20 20 19 19 18 17 16 15 14 12 11 10 9 7 6 6 5 4 3 3 3 3 4 4 4 4 5 5 5 4 3 3 4 4 4 4 4
8 9 10 10 12 13 15 16 17 18 18 19 19 19 19 19 18 17 16 15 14 14 12 11 10 9 8 6 6 5 3 2 3 3 3 3 3 3 4 5 5 4 4 4 4 5 5 4 4
5 6 8 8 9 11 12 14 15 16 17 18 18 18 18 18 17 17 16 15 15 14 13 12 11 10 9 7 6 5 4 3 1 2 3 3 4 4 4 5 5 4 4 4 4 5 4 4 4
4 4 5 6 7 8 10 11 12 13 15 16 17 18 18 17 17 16 16 15 14 14 14 13 12 11 10 9 8 7 6 5 3 0 2 3 3 4 4 5 5 4 5 5 4 5 5 4 4
4 3 2 3 5 6 7 8 9 11 12 14 15 16 17 17 16 16 16 15 15 14 14 13 13 12 11 10 9 8 7 6 5 3 0 2 3 4 4 5 5 5 5 5 5 6 6 6 6
4 3 2 1 2 3 4 5 6 8 10 11 13 14 15 16 16 15 15 15 15 14 13 13 13 12 11 10 9 8 7 6 6 5 2 1 2 3 3 4 5 5 4 4 5 5 6 6 7
9 7 5 4 1 1 2 3 4 6 7 9 11 12 13 14 14 14 14 14 14 14 14 13 13 12 11 11 10 9 8 7 7 6 4 3 2 2 3 3 4 4 4 5 5 5 6 7 7
12 10 8 7 5 2 1 1 2 4 5 7 8 9 11 12 13 13 13 13 14 14 14 14 13 13 12 11 11 9 9 8 7 7 5 4 3 2 2 2 3 4 4 5 5 5 7 8 8
15 13 12 10 8 6 4 3 2 3 3 5 6 8 9 10 10 11 12 13 13 13 13 13 13 13 12 12 11 11 10 9 8 7 6 5 4 3 3 3 2 3 4 4 5 6 7 8 8
18 16 14 13 11 9 7 6 5 4 4 4 5 7 8 8 9 9 10 11 11 12 12 12 12 12 12 12 11 11 11 10 9 8 7 6 5 4 4 4 3 3 4 5 6 7 7 8 9
20 19 17 16 14 11 10 8 9 8 6 6 6 6 7 8 8 8 9 9 10 11 11 11 11 11 11 12 11 11 11 11 10 10 9 6 6 6 5 5 5 5 5 6 7 8 8 8 9
23 21 20 18 17 15 14 11 10 10 8 7 7 7 8 8 7 7 8 8 9 9 10 10 10 10 10 11 11 11 11 10 10 10 10 8 7 7 6 6 7 7 6 6 7 8 8 8 9
24 23 22 21 19 19 17 15 13 13 11 9 9 9 8 8 7 7 8 8 8 8 8 9 10 9 9 10 10 10 10 10 9 9 9 9 8 8 8 7 7 7 7 7 8 8 8 9 10
25 23 22 20 20 19 19 18 15 14 13 12 11 11 10 8 8 8 8 8 7 7 8 9 9 9 8 9 10 10 10 10 9 9 9 9 9 8 8 8 9 9 8 8 9 9 9 9 10
27 25 23 21 19 18 21 20 17 17 16 15 14 13 12 10 10 9 9 9 8 8 8 8 9 9 9 9 9 9 9 9 9 9 10 10 10 10 9 9 9 9 9 9 9 10 10 11 11
29 28 25 24 23 21 21 22 19 18 17 17 16 15 14 13 12 11 11 10 10 9 9 9 8 9 9 9 9 9 9 9 10 10 11 11 12 11 11 10 10 10 11 10 10 11 11 12 12
31 29 28 26 24 23 22 22 21 19 18 18 17 16 15 15 14 14 13 12 11 10 10 9 9 9 10 10 10 10 10 10 10 11 12 12 12 12 13 12 11 11 11 11 11 11 11 12 13
32 31 31 28 27 25 21 21 22 21 20 19 19 18 18 17 16 15 14 13 12 11 11 10 10 10 11 11 11 11 10 10 11 12 13 13 13 13 13 13 13 12 11 12 12 12 13 14 14
34 33 32 30 30 29 26 24 25 22 21 20 20 19 19 19 18 18 16 16 15 14 13 13 12 12 12 12 12 12 12 12 13 14 14 14 14 14 14 14 14 13 13 14 14 14 15 15 15
Wind_Direction
66 66 66 69 66 66 68 68 67 67 67 67 69 70 73 76 77 79 79 84 85 93 107 115 114 115 122 136 138 130 131 135 136 140 138 136 134 130 126 127 126 124 122 119 119 120 122 122 120
67 66 67 66 68 67 66 67 66 65 65 66 65 66 68 69 69 69 73 79 83 89 100 109 112 116 125 132 134 130 131 134 139 141 139 138 137 135 132 131 131 132 130 128 128 126 122 120 119
67 66 66 66 65 65 64 64 63 63 63 64 63 63 63 63 63 65 70 77 85 86 92 108 111 120 127 128 125 130 134 133 136 141 139 139 140 140 138 138 140 143 141 140 138 132 130 122 119
69 69 66 64 62 62 62 63 63 61 61 62 62 61 61 60 59 60 64 70 75 81 86 97 107 114 120 126 129 131 135 133 133 138 140 141 141 140 140 144 146 147 146 147 146 138 135 129 126
70 68 63 61 62 61 60 61 62 61 61 61 61 60 59 57 56 58 61 64 69 76 82 93 103 113 120 127 133 133 137 134 134 140 146 146 143 142 141 142 144 143 143 148 154 146 144 141 135
71 69 68 63 62 60 59 60 61 61 60 58 58 59 59 56 55 57 59 62 65 73 81 93 101 114 125 128 133 136 138 135 137 143 149 151 150 147 147 149 148 150 153 158 160 154 155 148 149
74 73 68 65 62 61 60 59 60 61 59 57 57 57 57 57 53 54 57 62 67 70 80 93 100 109 121 129 136 143 142 142 142 142 143 147 154 154 152 154 153 148 149 152 159 157 155 151 153
74 71 65 64 63 62 61 59 59 60 58 57 56 55 54 54 54 53 55 60 62 65 70 78 89 102 115 130 138 145 148 149 147 147 146 145 153 154 151 153 153 151 151 155 158 166 158 157 160
75 72 69 67 64 63 61 59 58 59 59 57 56 54 52 52 52 51 52 55 58 62 65 69 73 84 102 124 141 149 154 155 154 150 150 153 160 158 153 155 155 158 161 167 166 177 175 165 164
79 78 73 71 67 65 62 59 56 56 56 56 55 53 52 51 50 49 50 52 55 57 59 61 63 70 84 106 132 148 155 156 155 153 155 154 161 167 165 166 168 166 172 180 179 174 178 178 174
82 83 77 72 68 66 63 59 56 56 55 53 52 51 50 50 50 49 48 50 52 54 54 56 59 66 72 82 110 132 147 154 157 159 159 160 164 172 177 176 181 181 178 181 184 180 178 181 185
87 87 83 75 70 66 63 59 56 55 54 53 51 49 48 48 50 49 49 50 51 51 52 53 54 57 62 68 80 102 134 161 166 172 168 166 171 183 190 194 193 189 190 192 190 186 184 188 196
95 91 86 79 74 68 64 59 55 54 52 51 49 47 47 46 48 49 49 50 49 49 49 50 51 52 52 57 67 72 77 129 174 187 187 187 191 192 199 209 209 207 209 205 199 205 197 200 207
106 94 91 86 78 72 65 58 54 52 50 48 46 45 45 45 45 46 46 46 47 48 49 49 49 51 52 53 56 57 54 57 96 202 203 201 211 213 214 216 218 215 216 212 202 201 207 213 219
135 113 96 91 86 79 67 57 54 50 47 45 44 42 42 43 43 44 44 44 45 46 47 48 49 50 49 49 51 51 46 44 39 38 216 212 220 223 226 230 225 216 213 211 214 222 223 229 232
176 147 110 96 89 84 70 58 52 48 44 42 41 40 39 39 40 41 42 42 43 44 44 44 44 45 47 46 46 47 44 40 35 29 270 233 232 233 235 236 234 227 223 224 229 233 231 235 237
219 211 215 202 102 88 73 64 49 46 43 40 37 36 36 37 38 38 39 40 40 40 40 40 40 41 42 41 42 41 39 36 34 33 29 333 265 245 241 242 234 227 230 239 240 244 237 238 242
232 227 233 239 229 97 71 59 39 38 39 37 33 32 31 31 32 33 35 36 37 37 36 35 35 35 34 33 35 36 34 33 32 32 39 15 332 294 260 248 234 235 243 248 247 248 251 249 250
229 229 238 245 245 251 278 356 5 16 25 29 25 23 23 22 25 27 28 30 32 33 33 32 33 32 32 31 30 32 31 31 30 27 29 27 10 348 323 280 245 243 249 254 257 258 261 258 255
233 235 243 251 251 256 266 270 294 330 355 10 11 7 10 13 16 19 20 22 26 29 30 30 31 30 29 30 30 32 33 30 25 25 23 24 15 353 341 323 287 268 262 261 265 265 264 266 262
235 237 242 246 251 258 262 273 280 285 307 331 343 347 353 360 3 6 10 14 19 24 26 26 26 27 27 27 29 31 30 26 24 22 18 18 19 7 354 338 327 304 288 283 282 275 273 274 270
236 240 243 247 249 254 258 258 272 276 282 299 311 324 332 342 349 350 357 4 9 14 18 20 20 21 22 23 25 25 25 25 25 23 18 15 15 15 9 355 346 326 313 306 299 295 287 283 278
234 240 243 246 249 250 256 254 258 269 273 279 290 302 314 324 331 337 343 348 356 2 6 9 10 12 16 17 18 20 20 19 20 21 20 19 16 14 2 353 347 340 326 318 319 308 292 286 286
236 240 245 248 249 251 252 252 254 261 268 270 278 287 296 303 310 319 327 332 341 349 354 359 1 2 7 11 11 11 13 16 19 19 13 13 11 6 0 355 347 338 333 327 323 318 307 297 293
235 238 244 248 249 252 254 252 251 255 261 263 269 275 283 290 298 305 311 316 322 330 338 350 354 355 355 1 5 8 9 11 12 12 10 5 358 356 353 350 342 334 331 328 325 322 316 307 302
235 235 237 240 247 253 258 253 252 256 259 260 262 267 271 278 286 293 296 301 305 313 322 334 343 349 351 352 357 0 1 1 1 0 360 357 350 345 340 338 335 332 327 321 322 320 316 311 305
237 236 237 242 245 245 250 256 256 257 257 258 258 261 266 271 278 283 286 293 295 301 305 314 327 336 343 344 343 346 347 348 350 349 347 348 347 343 338 330 323 320 320 318 318 319 317 313 308
237 239 240 239 242 246 251 259 258 256 256 257 256 257 261 265 271 276 278 283 287 292 295 299 310 321 327 334 333 328 332 334 337 341 339 338 340 339 339 333 322 316 316 315 313 316 320 318 313
236 238 240 242 241 244 248 256 260 256 254 255 254 253 255 258 265 272 274 277 280 284 287 290 298 307 315 318 322 322 322 324 326 328 330 330 331 333 333 332 327 317 313 312 309 311 315 316 312
239 239 241 243 246 247 245 250 257 256 253 252 251 250 251 254 258 264 268 272 272 274 279 283 289 295 301 307 311 315 317 315 317 317 317 319 320 321 321 322 322 316 310 306 307 308 311 313 312
Height
5905 5903 5902 5902 5901 5902 5900 5898 5896 5894 5893 5891 5890 5889 5888 5888 5888 5890 5886 5884 5884 5884 5883 5883 5883 5883 5883 5884 5884 5884 5885 5885 5886 5887 5888 5889 5889 5890 5891 5892 5893 5894 5895 5895 5896 5896 5896 5897 5897
5907 5906 5906 5905 5906 5905 5903 5900 5898 5896 5895 5893 5891 5890 5889 5888 5888 5887 5886 5885 5885 5885 5885 5885 5884 5884 5884 5884 5884 5885 5885 5886 5886 5887 5888 5889 5890 5891 5892 5893 5894 5894 5895 5896 5896 5896 5897 5897 5898
5910 5909 5909 5909 5908 5907 5905 5902 5900 5898 5896 5894 5893 5892 5891 5890 5889 5888 5887 5886 5886 5886 5885 5885 5885 5885 5885 5885 5885 5886 5886 5886 5887 5888 5888 5890 5890 5891 5892 5893 5894 5895 5895 5896 5897 5897 5897 5897 5898
5913 5913 5912 5913 5911 5909 5907 5904 5902 5900 5898 5896 5895 5893 5892 5891 5890 5889 5888 5887 5887 5887 5886 5886 5886 5886 5886 5886 5886 5887 5887 5887 5888 5888 5889 5890 5891 5891 5892 5893 5894 5895 5896 5896 5897 5897 5897 5898 5898
5916 5915 5917 5916 5913 5911 5909 5906 5904 5902 5900 5898 5896 5895 5893 5892 5891 5890 5889 5888 5888 5887 5887 5887 5887 5887 5887 5887 5887 5888 5888 5888 5888 5889 5889 5890 5891 5891 5892 5893 5894 5895 5896 5896 5897 5897 5898 5898 5899
5919 5919 5921 5919 5916 5914 5911 5909 5906 5904 5902 5900 5898 5897 5895 5894 5892 5891 5890 5889 5889 5889 5888 5888 5888 5888 5888 5888 5888 5888 5889 5889 5889 5890 5890 5891 5891 5892 5893 5894 5894 5895 5896 5896 5897 5897 5898 5898 5899
5923 5923 5923 5921 5919 5916 5914 5911 5909 5906 5904 5903 5901 5899 5897 5895 5894 5893 5892 5891 5890 5890 5889 5889 5889 5889 5889 5889 5889 5889 5889 5890 5890 5890 5891 5891 5892 5892 5893 5894 5894 5895 5895 5896 5897 5897 5898 5898 5899
5925 5927 5926 5923 5921 5919 5917 5914 5911 5909 5907 5905 5903 5901 5899 5898 5896 5895 5894 5893 5892 5891 5891 5890 5890 5890 5889 5889 5890 5890 5890 5890 5891 5891 5891 5891 5892 5892 5893 5894 5894 5895 5895 5896 5897 5897 5898 5898 5899
5928 5931 5929 5926 5924 5922 5919 5916 5914 5912 5909 5907 5905 5904 5902 5900 5898 5897 5896 5895 5894 5893 5892 5891 5891 5890 5890 5890 5890 5890 5891 5891 5891 5891 5891 5892 5892 5892 5893 5894 5894 5895 5895 5896 5897 5897 5898 5898 5899
5931 5932 5930 5928 5926 5924 5921 5919 5917 5914 5912 5910 5908 5906 5904 5903 5901 5899 5898 5897 5895 5894 5893 5893 5892 5891 5891 5891 5891 5891 5891 5891 5891 5892 5892 5892 5892 5892 5893 5894 5894 5895 5895 5896 5896 5897 5897 5898 5899
5933 5933 5931 5930 5928 5926 5924 5922 5919 5917 5915 5913 5911 5909 5907 5905 5903 5902 5900 5899 5897 5896 5895 5894 5893 5892 5892 5891 5891 5891 5891 5891 5892 5892 5892 5892 5892 5893 5893 5893 5894 5895 5895 5895 5896 5897 5897 5898 5899
5934 5934 5933 5931 5930 5928 5926 5924 5922 5920 5919 5916 5914 5912 5910 5908 5906 5904 5903 5901 5900 5898 5897 5896 5895 5894 5893 5892 5892 5891 5891 5892 5892 5892 5892 5893 5893 5893 5893 5894 5894 5895 5895 5895 5896 5896 5897 5898 5899
5936 5935 5934 5933 5932 5930 5929 5927 5925 5923 5921 5919 5917 5915 5913 5911 5909 5907 5905 5904 5902 5900 5899 5897 5896 5895 5894 5893 5892 5892 5892 5892 5892 5892 5893 5893 5893 5893 5893 5893 5894 5894 5895 5895 5895 5896 5897 5898 5898
5936 5936 5935 5934 5933 5932 5931 5929 5927 5925 5923 5921 5919 5917 5915 5913 5911 5910 5908 5906 5905 5903 5901 5899 5898 5896 5895 5894 5893 5893 5892 5892 5892 5892 5892 5892 5892 5892 5893 5893 5893 5893 5894 5895 5895 5896 5897 5897 5898
5936 5937 5937 5936 5935 5934 5933 5931 5930 5928 5926 5924 5922 5920 5918 5916 5914 5912 5910 5909 5907 5905 5903 5901 5900 5898 5897 5896 5895 5894 5893 5892 5892 5892 5892 5892 5892 5892 5892 5892 5892 5893 5893 5894 5895 5895 5896 5896 5897
5936 5937 5938 5937 5936 5935 5935 5934 5932 5930 5928 5926 5924 5922 5920 5918 5916 5914 5913 5911 5909 5907 5905 5903 5901 5900 5898 5897 5896 5895 5894 5893 5892 5892 5891 5891 5891 5891 5891 5892 5892 5892 5893 5893 5894 5894 5895 5895 5896
5937 5938 5938 5937 5936 5936 5935 5935 5933 5931 5929 5928 5926 5924 5923 5921 5919 5917 5915 5913 5911 5909 5907 5905 5903 5902 5900 5898 5897 5896 5895 5894 5893 5892 5891 5891 5891 5891 5891 5891 5891 5891 5892 5893 5893 5894 5894 5894 5895
5937 5937 5937 5937 5936 5936 5936 5935 5934 5932 5931 5929 5928 5926 5925 5923 5921 5919 5917 5915 5913 5911 5909 5907 5905 5903 5901 5900 5898 5897 5896 5894 5893 5892 5891 5891 5891 5890 5890 5890 5890 5891 5891 5892 5892 5892 5893 5893 5893
5933 5934 5935 5935 5935 5935 5935 5935 5934 5933 5932 5930 5929 5927 5926 5924 5923 5921 5919 5917 5915 5913 5910 5908 5906 5904 5903 5901 5899 5898 5896 5895 5894 5893 5892 5891 5890 5890 5890 5890 5890 5890 5890 5890 5891 5891 5891 5891 5891
5930 5932 5933 5933 5933 5934 5934 5934 5934 5933 5932 5931 5929 5928 5927 5925 5924 5922 5920 5918 5916 5914 5912 5910 5908 5906 5904 5902 5901 5899 5897 5896 5894 5893 5892 5891 5890 5889 5889 5889 5889 5889 5889 5889 5889 5889 5889 5889 5890
5927 5929 5931 5931 5931 5932 5933 5934 5934 5933 5932 5931 5929 5928 5927 5926 5924 5923 5921 5920 5918 5916 5914 5912 5910 5907 5905 5904 5902 5900 5898 5897 5896 5894 5892 5891 5890 5889 5889 5889 5889 5889 5888 5888 5888 5888 5887 5887 5887
5924 5925 5927 5928 5929 5931 5931 5934 5933 5931 5931 5930 5929 5928 5927 5926 5925 5923 5922 5920 5919 5917 5915 5913 5911 5909 5907 5905 5903 5901 5900 5898 5896 5895 5893 5891 5890 5889 5889 5889 5889 5888 5887 5887 5887 5886 5886 5885 5885
5920 5922 5923 5925 5926 5928 5929 5930 5932 5929 5929 5929 5928 5927 5926 5925 5924 5923 5922 5920 5919 5917 5915 5913 5911 5910 5908 5906 5904 5902 5900 5899 5897 5895 5893 5892 5891 5890 5890 5889 5888 5887 5886 5886 5885 5884 5884 5883 5883
5915 5917 5919 5921 5923 5925 5926 5927 5928 5928 5927 5927 5926 5926 5925 5924 5923 5922 5921 5920 5919 5917 5915 5914 5912 5910 5908 5907 5905 5903 5901 5899 5898 5896 5894 5893 5891 5891 5890 5889 5888 5887 5886 5885 5884 5882 5882 5881 5880
5910 5914 5917 5918 5920 5921 5921 5922 5924 5923 5923 5924 5924 5923 5923 5923 5922 5921 5920 5919 5918 5916 5915 5913 5912 5910 5909 5907 5905 5903 5902 5900 5898 5897 5895 5894 5892 5891 5889 5888 5887 5886 5885 5884 5882 5881 5880 5879 5878
5904 5909 5912 5915 5918 5919 5916 5917 5919 5919 5919 5920 5920 5920 5921 5920 5920 5919 5918 5918 5916 5915 5914 5913 5911 5910 5908 5907 5905 5903 5902 5900 5898 5896 5895 5893 5892 5890 5889 5887 5886 5885 5884 5882 5881 5880 5878 5877 5876
5898 5902 5906 5909 5910 5913 5913 5912 5914 5914 5915 5916 5916 5917 5917 5918 5917 5917 5916 5915 5915 5913 5912 5911 5910 5908 5907 5906 5904 5903 5901 5899 5898 5896 5894 5892 5891 5889 5888 5886 5885 5883 5882 5881 5879 5877 5876 5874 5873
5893 5896 5899 5902 5904 5906 5909 5908 5909 5909 5910 5911 5912 5913 5914 5914 5914 5914 5913 5913 5912 5911 5910 5909 5908 5907 5906 5904 5903 5901 5900 5898 5896 5895 5893 5891 5889 5887 5886 5884 5883 5881 5879 5878 5877 5875 5874 5872 5870
5886 5889 5891 5895 5898 5901 5904 5907 5904 5904 5905 5907 5908 5908 5909 5910 5910 5910 5910 5910 5909 5909 5908 5907 5906 5905 5904 5902 5901 5899 5898 5896 5895 5893 5891 5889 5888 5886 5884 5882 5880 5878 5876 5875 5874 5873 5871 5870 5868
5878 5881 5885 5888 5890 5892 5896 5902 5898 5898 5900 5901 5902 5903 5904 5905 5905 5906 5906 5906 5906 5905 5905 5904 5903 5902 5901 5900 5899 5897 5895 5894 5892 5891 5889 5887 5885 5884 5882 5880 5877 5875 5873 5872 5871 5870 5868 5866 5865